N4QCZ Weather Reports


Display with metric or nautical units.
time (UTC)temp
F
wind
direction
speed
MPH
gust
MPH
rain 1hr
in
rain 24hr
in
rain mn
in
humidity
%
barometer
mb
20260906124546 77 149 0.0 2.0 0.00 0.00 0.00 94 1013.4
20260906123115 77 0 0.0 1.0 0.00 0.00 0.00 95 1013.5
20260906121548 76 0 0.0 1.0 0.00 0.00 0.00 95 1013.5
20260906120047 75 0 0.0 0.0 0.00 0.00 0.00 95 1013.3
20260906114542 75 0 0.0 1.0 0.00 0.00 0.00 94 1013.3
20260906113042 75 0 0.0 0.0 0.00 0.00 0.00 94 1013.1
20260906111548 75 0 0.0 0.0 0.00 0.00 0.00 94 1013.1
20260906110046 75 0 0.0 0.0 0.00 0.00 0.00 94 1012.8
20260906104541 75 0 0.0 0.0 0.00 0.00 0.00 94 1012.6
20260906103041 75 0 0.0 0.0 0.00 0.00 0.00 94 1012.4
20260906101547 75 0 0.0 0.0 0.00 0.00 0.00 94 1012.2
20260906100045 75 0 0.0 0.0 0.00 0.00 0.00 94 1012.2
20260906094559 75 0 0.0 0.0 0.00 0.00 0.00 94 1012.2
20260906093050 75 0 0.0 0.0 0.00 0.00 0.00 94 1012.2
20260906091601 76 0 0.0 0.0 0.00 0.00 0.00 93 1012.0
20260906090048 76 0 0.0 0.0 0.00 0.00 0.00 93 1012.0
20260906084551 76 0 0.0 0.0 0.00 0.00 0.00 93 1012.0
20260906083050 76 0 0.0 0.0 0.00 0.00 0.00 93 1011.8
20260906081549 76 0 0.0 0.0 0.00 0.00 0.00 93 1012.1
20260906080047 76 0 0.0 0.0 0.00 0.00 0.00 93 1012.1
20260906074548 76 0 0.0 0.0 0.00 0.00 0.00 93 1012.1
20260906073050 76 0 0.0 0.0 0.00 0.00 0.00 93 1012.2
20260906071548 76 0 0.0 0.0 0.00 0.00 0.00 92 1012.1
20260906070047 77 0 0.0 0.0 0.00 0.00 0.00 92 1012.1
20260906064551 77 0 0.0 0.0 0.00 0.00 0.00 92 1012.2
20260906063052 77 0 0.0 0.0 0.00 0.00 0.00 92 1012.4
20260906061551 77 0 0.0 0.0 0.00 0.00 0.00 91 1012.5
20260906060048 78 0 0.0 0.0 0.00 0.00 0.00 91 1012.5
20260906054550 78 0 0.0 0.0 0.00 0.00 0.00 91 1012.6
20260906053102 78 0 0.0 0.0 0.00 0.00 0.00 91 1012.6
20260906051548 78 0 0.0 0.0 0.00 0.00 0.00 90 1012.4
20260906050053 78 0 0.0 0.0 0.00 0.00 0.00 90 1012.5
20260906044542 79 0 0.0 1.0 0.00 0.00 0.00 91 1012.5
20260906043052 79 0 0.0 0.0 0.00 0.00 0.00 90 1012.7
20260906041555 79 0 0.0 0.0 0.00 0.00 0.00 90 1012.8
20260906040044 79 0 0.0 0.0 0.00 0.00 0.00 89 1012.9
20260906034551 80 0 0.0 1.0 0.00 0.00 0.00 89 1013.0
20260906033104 80 0 0.0 0.0 0.00 0.00 0.00 88 1013.2
20260906031547 80 0 0.0 1.0 0.00 0.00 0.00 88 1013.6
20260906030046 81 0 0.0 0.0 0.00 0.00 0.00 87 1013.5
20260906024551 81 0 0.0 0.0 0.00 0.00 0.00 86 1013.6
20260906023052 81 0 0.0 0.0 0.00 0.00 0.00 86 1013.6
20260906021549 81 0 0.0 0.0 0.00 0.00 0.00 86 1013.6
20260906020103 82 0 0.0 0.0 0.00 0.00 0.00 85 1013.2
20260906014543 82 0 0.0 0.0 0.00 0.00 0.00 84 1012.8
20260906013050 83 0 0.0 0.0 0.00 0.00 0.00 84 1012.4
20260906011557 83 0 0.0 0.0 0.00 0.00 0.00 83 1012.3
20260906010050 83 0 0.0 0.0 0.00 0.00 0.00 82 1012.1
20260906004551 84 0 0.0 0.0 0.00 0.00 0.00 82 1011.8
20260906003043 84 0 0.0 0.0 0.00 0.00 0.00 81 1011.7
20260906001552 84 0 0.0 2.0 0.00 0.00 0.00 81 1011.6
20260906000055 84 109 0.0 1.0 0.00 0.00 0.00 80 1011.4
20260905234548 84 0 0.0 0.0 0.00 0.00 0.00 81 1011.2
20260905233053 85 0 0.0 0.0 0.00 0.00 0.00 79 1011.3
20260905231550 86 0 0.0 1.0 0.00 0.00 0.00 78 1011.3
20260905230054 86 0 0.0 1.0 0.00 0.00 0.00 77 1011.5
20260905224549 87 0 0.0 2.0 0.00 0.00 0.00 77 1011.7
20260905223049 88 0 0.0 2.0 0.00 0.00 0.00 75 1011.8
20260905221547 88 0 0.0 2.0 0.00 0.00 0.00 75 1012.0
20260905220043 90 0 0.0 2.0 0.00 0.00 0.00 73 1012.0
20260905214549 90 184 0.0 3.0 0.00 0.00 0.00 69 1012.1
20260905213049 89 327 0.0 3.0 0.00 0.00 0.00 72 1011.9
20260905211552 89 0 0.0 2.0 0.00 0.00 0.00 74 1012.1
20260905210047 89 0 0.0 2.0 0.00 0.00 0.00 71 1012.1
20260905204553 90 153 0.0 2.0 0.00 0.00 0.00 69 1012.1
20260905203048 91 313 0.0 7.0 0.00 0.00 0.00 69 1012.1
20260905201547 91 0 0.0 4.0 0.00 0.00 0.00 73 1012.2
20260905200042 91 0 0.0 2.0 0.00 0.00 0.00 69 1012.3
20260905194557 91 0 1.0 7.0 0.00 0.00 0.00 74 1012.7
20260905193047 92 0 0.0 0.0 0.00 0.00 0.00 71 1012.4
20260905191547 91 0 0.0 5.0 0.00 0.00 0.00 71 1012.8
20260905190043 91 328 0.0 3.0 0.00 0.00 0.00 71 1013.3
20260905184611 91 0 0.0 6.0 0.00 0.00 0.00 69 1013.5
20260905183052 90 0 0.0 4.0 0.00 0.00 0.00 74 1013.6
20260905181556 90 0 0.0 3.0 0.00 0.00 0.00 71 1014.0
20260905180048 88 0 0.0 3.0 0.00 0.00 0.00 74 1014.1
20260905174542 88 171 0.0 2.0 0.00 0.00 0.00 74 1014.0
20260905173047 88 0 0.0 4.0 0.00 0.00 0.00 75 1014.4
20260905171547 88 118 1.0 4.0 0.00 0.00 0.00 76 1014.4
20260905170043 87 149 0.0 3.0 0.00 0.00 0.00 77 1014.5
20260905164543 86 0 1.0 4.0 0.00 0.00 0.00 77 1014.7
20260905163048 86 0 1.0 5.0 0.00 0.00 0.00 79 1015.1
20260905161547 85 0 0.0 5.0 0.00 0.00 0.00 79 1015.3
20260905160047 84 0 0.0 2.0 0.00 0.00 0.00 81 1015.5
20260905154610 83 0 0.0 4.0 0.00 0.00 0.00 83 1015.7
20260905153049 82 0 0.0 2.0 0.00 0.00 0.00 84 1015.8
20260905151545 81 0 0.0 3.0 0.00 0.00 0.00 87 1016.0
20260905144548 79 0 1.0 3.0 0.00 0.00 0.00 89 1015.8
20260905143049 78 0 0.0 2.0 0.00 0.00 0.00 93 1015.9
20260905141543 77 0 0.0 1.0 0.00 0.00 0.00 95 1016.0
20260905140045 77 0 0.0 1.0 0.00 0.00 0.00 96 1015.8
20260905134549 76 0 0.0 2.0 0.00 0.00 0.00 96 1015.8
20260905133050 76 0 0.0 2.0 0.00 0.00 0.00 96 1015.8
20260905131546 76 0 0.0 2.0 0.00 0.00 0.00 96 1015.6
20260905130051 75 123 0.0 2.0 0.00 0.00 0.00 96 1015.6